Darstellungsparameter: Aktuell verwendete Einstellungen:
Skalierung der Graphiken ... ?
xyx+y,   Skalierungsfaktor:      Skalierung: Modus: x, Faktor: 1
Darstellungszeitraum ... ?
Vom - - bis: - -   Zeitraum: 26.09.2019 - 28.09.2019
Min/Max/Avg-Anzeige ... ?
Zeige MMA aktuell
Zeige MMA Monat
Zeige MMA alles
Zeige --A aktuell
Zeige --A Monat
Zeige --A alles
Keine MMA-Anzeige
MMA:
Average (ber die Originaldaten)
MMA-Basis: 26.09.2019 - 28.09.2019
Quicknavigation für Darstellung... ?
Tage:      1T, 2T, 3T, 5T -1T -2T -3T -5T +1T +2T +3T +5T
Wochen: 1W, 2W, 3W -1W -2W -3W +1W +2W +3W
Monate: 1M, 3M, 6M -1M -3M -6M +1M +3M +6M
Jahre:    1J, 3J, 5J, 10J -1J -3J -5J -10J +1J +3J +5J +10J
Nutze für die Darstellung ... ?
Originaldaten oder Mittelwerte auf ...
Stundenbasis Tagesbasis Wochenbasis
Monatsbasis Jahresbasis      Datenbasis: Original-Daten
Darstellen als:
Statistik (Auto) Statistik J:M      Darstellung:
Zur Graphik,    zurück zur Übersicht aller Sensoren.
 
Tabellarische Datenbersicht: ?
 
Sensor: Nr:Datum:Temp:Abs-Feuchte:Windchill:Wind:
Aussen-T/F 1 26-09-2019 00:00:00 14.6 C 11.89 g/m*3 14.6 C 0 km/h
2 26-09-2019 00:05:00 14.6 C 11.89 g/m*3 14.6 C 0 km/h
3 26-09-2019 00:10:00 14.6 C 11.89 g/m*3 14.6 C 1.6 km/h
4 26-09-2019 00:15:00 14.6 C 11.89 g/m*3 14.6 C 0 km/h
5 26-09-2019 00:20:00 14.6 C 11.89 g/m*3 14.6 C 0 km/h
6 26-09-2019 00:25:00 14.6 C 11.89 g/m*3 14.6 C 0 km/h
7 26-09-2019 00:30:00 14.6 C 11.89 g/m*3 14.6 C 1.6 km/h
8 26-09-2019 00:35:00 14.5 C 11.82 g/m*3 14.5 C 0 km/h
9 26-09-2019 00:40:00 14.5 C 11.82 g/m*3 14.5 C 0 km/h
10 26-09-2019 00:45:00 14.5 C 11.82 g/m*3 14.5 C 0 km/h
11 26-09-2019 00:50:00 14.5 C 11.82 g/m*3 14.5 C 0 km/h
12 26-09-2019 00:55:00 14.5 C 11.82 g/m*3 14.5 C 0 km/h
13 26-09-2019 01:00:00 14.5 C 11.82 g/m*3 14.5 C 0 km/h
14 26-09-2019 01:05:00 14.4 C 11.74 g/m*3 14.4 C 0 km/h
15 26-09-2019 01:10:00 14.4 C 11.74 g/m*3 14.4 C 0 km/h
16 26-09-2019 01:15:00 14.4 C 11.74 g/m*3 14.4 C 0 km/h
17 26-09-2019 01:20:00 14.3 C 11.67 g/m*3 14.3 C 0 km/h
18 26-09-2019 01:25:00 14.3 C 11.79 g/m*3 14.3 C 0 km/h
19 26-09-2019 01:30:00 14.2 C 11.6 g/m*3 14.2 C 0 km/h
20 26-09-2019 01:35:00 14.1 C 11.53 g/m*3 14.1 C 0 km/h
21 26-09-2019 01:40:00 14.1 C 11.53 g/m*3 14.1 C 0 km/h
22 26-09-2019 01:45:00 14 C 11.46 g/m*3 14 C 0 km/h
23 26-09-2019 01:50:00 14 C 11.58 g/m*3 14 C 0 km/h
24 26-09-2019 01:55:00 14.1 C 11.65 g/m*3 14.1 C 0 km/h
25 26-09-2019 02:00:00 14.1 C 11.65 g/m*3 14.1 C 0 km/h
Sensor: Nr:Datum:Temp:Abs-Feuchte:Windchill:Wind:
Aussen-T/F 26 26-09-2019 02:05:00 14.2 C 11.72 g/m*3 14.2 C 0 km/h
27 26-09-2019 02:10:00 14.2 C 11.72 g/m*3 14.2 C 0 km/h
28 26-09-2019 02:15:00 14.2 C 11.72 g/m*3 14.2 C 0 km/h
29 26-09-2019 02:20:00 14.1 C 11.65 g/m*3 14.1 C 0 km/h
30 26-09-2019 02:25:00 14.1 C 11.65 g/m*3 14.1 C 0 km/h
31 26-09-2019 02:30:00 14.1 C 11.65 g/m*3 14.1 C 0 km/h
32 26-09-2019 02:35:00 14.1 C 11.65 g/m*3 14.1 C 0 km/h
33 26-09-2019 02:40:00 14.1 C 11.65 g/m*3 14.1 C 0 km/h
34 26-09-2019 02:45:00 14.1 C 11.65 g/m*3 14.1 C 0 km/h
35 26-09-2019 02:50:00 14.2 C 11.72 g/m*3 14.2 C 0 km/h
36 26-09-2019 02:55:00 14.1 C 11.65 g/m*3 14.1 C 0 km/h
37 26-09-2019 03:00:00 14.1 C 11.65 g/m*3 14.1 C 0 km/h
38 26-09-2019 03:05:00 13.9 C 11.51 g/m*3 13.9 C 0 km/h
39 26-09-2019 03:10:00 13.8 C 11.32 g/m*3 13.8 C 0 km/h
40 26-09-2019 03:15:00 13.7 C 11.37 g/m*3 13.7 C 0 km/h
41 26-09-2019 03:20:00 13.6 C 11.3 g/m*3 13.6 C 0 km/h
42 26-09-2019 03:25:00 13.6 C 11.3 g/m*3 13.6 C 0 km/h
43 26-09-2019 03:30:00 13.6 C 11.3 g/m*3 13.6 C 0 km/h
44 26-09-2019 03:35:00 13.5 C 11.23 g/m*3 13.5 C 0 km/h
45 26-09-2019 03:40:00 13.4 C 11.16 g/m*3 13.4 C 0 km/h
46 26-09-2019 03:45:00 13.4 C 11.16 g/m*3 13.4 C 0 km/h
47 26-09-2019 03:50:00 13.4 C 11.16 g/m*3 13.4 C 0 km/h
48 26-09-2019 03:55:00 13.3 C 11.09 g/m*3 13.3 C 0 km/h
49 26-09-2019 04:00:00 13.3 C 11.09 g/m*3 13.3 C 0 km/h
50 26-09-2019 04:05:00 13.3 C 11.09 g/m*3 13.3 C 0 km/h
Sensor: Nr:Datum:Temp:Abs-Feuchte:Windchill:Wind:
Aussen-T/F 51 26-09-2019 04:10:00 13.2 C 11.02 g/m*3 13.2 C 0 km/h
52 26-09-2019 04:15:00 13.2 C 11.02 g/m*3 13.2 C 0 km/h
53 26-09-2019 04:20:00 13.1 C 10.95 g/m*3 13.1 C 0 km/h
54 26-09-2019 04:25:00 13.1 C 10.95 g/m*3 13.1 C 0 km/h
55 26-09-2019 04:30:00 13.2 C 11.02 g/m*3 13.2 C 0 km/h
56 26-09-2019 04:35:00 13.2 C 11.02 g/m*3 13.2 C 0 km/h
57 26-09-2019 04:40:00 13.2 C 11.02 g/m*3 13.2 C 0 km/h
58 26-09-2019 04:45:00 13.3 C 11.09 g/m*3 13.3 C 0 km/h
59 26-09-2019 04:50:00 13.4 C 11.28 g/m*3 13.4 C 0 km/h
60 26-09-2019 04:55:00 13.6 C 11.42 g/m*3 13.6 C 0 km/h
61 26-09-2019 05:00:00 13.7 C 11.49 g/m*3 13.7 C 0 km/h
62 26-09-2019 05:05:00 13.7 C 11.49 g/m*3 13.7 C 0 km/h
63 26-09-2019 05:10:00 13.8 C 11.56 g/m*3 13.8 C 3.2 km/h
64 26-09-2019 05:15:00 13.9 C 11.63 g/m*3 13.9 C 3.2 km/h
65 26-09-2019 05:20:00 13.9 C 11.63 g/m*3 13.9 C 0 km/h
66 26-09-2019 05:25:00 14 C 11.7 g/m*3 14 C 1.6 km/h
67 26-09-2019 05:30:00 14 C 11.7 g/m*3 14 C 8.1 km/h
68 26-09-2019 05:35:00 14.1 C 11.77 g/m*3 14.1 C 8.1 km/h
69 26-09-2019 05:40:00 14.1 C 11.77 g/m*3 14.1 C 0 km/h
70 26-09-2019 05:45:00 14 C 11.58 g/m*3 14 C 0 km/h
71 26-09-2019 05:50:00 13.9 C 11.51 g/m*3 13.9 C 0 km/h
72 26-09-2019 05:55:00 13.8 C 11.44 g/m*3 13.8 C 0 km/h
73 26-09-2019 06:00:00 13.8 C 11.56 g/m*3 13.8 C 0 km/h
74 26-09-2019 06:05:00 13.9 C 11.63 g/m*3 13.9 C 0 km/h
75 26-09-2019 06:10:00 13.9 C 11.63 g/m*3 13.9 C 1.6 km/h
Sensor: Nr:Datum:Temp:Abs-Feuchte:Windchill:Wind:
Aussen-T/F 76 26-09-2019 06:15:00 14.1 C 11.77 g/m*3 14.1 C 0 km/h
77 26-09-2019 06:20:00 14.1 C 11.77 g/m*3 14.1 C 4.8 km/h
78 26-09-2019 06:25:00 14.2 C 11.84 g/m*3 14.2 C 0 km/h
79 26-09-2019 06:30:00 14.2 C 11.84 g/m*3 14.2 C 0 km/h
80 26-09-2019 06:35:00 14.2 C 11.84 g/m*3 14.2 C 0 km/h
81 26-09-2019 06:40:00 14.2 C 11.84 g/m*3 14.2 C 0 km/h
82 26-09-2019 06:45:00 14.3 C 11.92 g/m*3 14.3 C 0 km/h
83 26-09-2019 06:50:00 14.3 C 11.92 g/m*3 14.3 C 0 km/h
84 26-09-2019 06:55:00 14.3 C 11.79 g/m*3 14.3 C 0 km/h
85 26-09-2019 07:00:00 14.3 C 11.79 g/m*3 14.3 C 0 km/h
86 26-09-2019 07:05:00 14.3 C 11.79 g/m*3 14.3 C 0 km/h
87 26-09-2019 07:10:00 14.3 C 11.79 g/m*3 14.3 C 1.6 km/h
88 26-09-2019 07:15:00 14.3 C 11.79 g/m*3 14.3 C 0 km/h
89 26-09-2019 07:20:00 14.3 C 11.79 g/m*3 14.3 C 0 km/h
90 26-09-2019 07:25:00 14.3 C 11.79 g/m*3 14.3 C 0 km/h
91 26-09-2019 07:30:00 14.4 C 11.87 g/m*3 14.4 C 0 km/h
92 26-09-2019 07:35:00 14.4 C 11.87 g/m*3 14.4 C 0 km/h
93 26-09-2019 07:40:00 14.4 C 11.87 g/m*3 14.4 C 0 km/h
94 26-09-2019 07:45:00 14.4 C 11.87 g/m*3 14.4 C 0 km/h
95 26-09-2019 07:50:00 14.4 C 11.87 g/m*3 14.4 C 0 km/h
96 26-09-2019 07:55:00 14.5 C 11.94 g/m*3 14.5 C 0 km/h
97 26-09-2019 08:00:00 14.6 C 12.01 g/m*3 14.6 C 3.2 km/h
98 26-09-2019 08:05:00 14.6 C 12.01 g/m*3 14.6 C 0 km/h
99 26-09-2019 08:10:00 14.6 C 12.01 g/m*3 14.6 C 0 km/h
100 26-09-2019 08:15:00 14.7 C 12.09 g/m*3 14.7 C 0 km/h
Sensor: Nr:Datum:Temp:Abs-Feuchte:Windchill:Wind:
Aussen-T/F 101 26-09-2019 08:20:00 14.7 C 12.09 g/m*3 14.7 C 0 km/h
102 26-09-2019 08:25:00 14.8 C 12.16 g/m*3 14.8 C 0 km/h
103 26-09-2019 08:30:00 14.8 C 12.16 g/m*3 14.8 C 0 km/h
104 26-09-2019 08:35:00 14.8 C 12.16 g/m*3 14.8 C 0 km/h
105 26-09-2019 08:40:00 14.8 C 12.16 g/m*3 14.8 C 0 km/h
106 26-09-2019 08:45:00 14.8 C 12.16 g/m*3 14.8 C 0 km/h
107 26-09-2019 08:50:00 14.8 C 12.16 g/m*3 14.8 C 0 km/h
108 26-09-2019 08:55:00 14.9 C 12.24 g/m*3 14.9 C 0 km/h
109 26-09-2019 09:00:00 14.9 C 12.24 g/m*3 14.9 C 0 km/h
110 26-09-2019 09:05:00 15 C 12.31 g/m*3 15 C 0 km/h
111 26-09-2019 09:10:00 15.1 C 12.39 g/m*3 15.1 C 0 km/h
112 26-09-2019 09:15:00 15.1 C 12.39 g/m*3 15.1 C 1.6 km/h
113 26-09-2019 09:20:00 15.1 C 12.39 g/m*3 15.1 C 0 km/h
114 26-09-2019 09:25:00 15 C 12.31 g/m*3 15 C 1.6 km/h
115 26-09-2019 09:30:00 15.1 C 12.39 g/m*3 15.1 C 1.6 km/h
116 26-09-2019 09:35:00 15.1 C 12.26 g/m*3 15.1 C 0 km/h
117 26-09-2019 09:40:00 15.2 C 12.46 g/m*3 15.2 C 0 km/h
118 26-09-2019 09:45:00 15.2 C 12.33 g/m*3 15.2 C 0 km/h
119 26-09-2019 09:50:00 15.2 C 12.33 g/m*3 15.2 C 0 km/h
120 26-09-2019 09:55:00 15.3 C 12.41 g/m*3 15.3 C 0 km/h
121 26-09-2019 10:00:00 15.3 C 12.41 g/m*3 15.3 C 0 km/h
122 26-09-2019 10:05:00 15.4 C 12.48 g/m*3 15.4 C 1.6 km/h
123 26-09-2019 10:10:00 15.4 C 12.48 g/m*3 15.4 C 0 km/h
124 26-09-2019 10:15:00 15.6 C 12.63 g/m*3 15.6 C 0 km/h
125 26-09-2019 10:20:00 15.7 C 12.84 g/m*3 15.7 C 0 km/h
Sensor: Nr:Datum:Temp:Abs-Feuchte:Windchill:Wind:
Aussen-T/F 126 26-09-2019 10:25:00 15.8 C 12.92 g/m*3 15.8 C 0 km/h
127 26-09-2019 10:30:00 15.9 C 13 g/m*3 15.9 C 0 km/h
128 26-09-2019 10:35:00 16.1 C 13.16 g/m*3 16.1 C 0 km/h
129 26-09-2019 10:40:00 16.2 C 13.24 g/m*3 16.2 C 0 km/h
130 26-09-2019 10:45:00 16.3 C 13.32 g/m*3 16.3 C 0 km/h
131 26-09-2019 10:50:00 16.3 C 13.18 g/m*3 16.3 C 0 km/h
132 26-09-2019 10:55:00 16.4 C 13.26 g/m*3 16.4 C 0 km/h
133 26-09-2019 11:00:00 16.3 C 13.04 g/m*3 16.3 C 1.6 km/h
134 26-09-2019 11:05:00 16.4 C 13.26 g/m*3 16.4 C 0 km/h
135 26-09-2019 11:10:00 16.5 C 13.34 g/m*3 16.5 C 0 km/h
136 26-09-2019 11:15:00 16.5 C 13.34 g/m*3 16.5 C 0 km/h
137 26-09-2019 11:20:00 16.5 C 13.34 g/m*3 16.5 C 0 km/h
138 26-09-2019 11:25:00 16.6 C 13.42 g/m*3 16.6 C 0 km/h
139 26-09-2019 11:30:00 16.7 C 13.5 g/m*3 16.7 C 0 km/h
140 26-09-2019 11:35:00 16.7 C 13.5 g/m*3 16.7 C 3.2 km/h
141 26-09-2019 11:40:00 16.6 C 13.28 g/m*3 16.6 C 0 km/h
142 26-09-2019 11:45:00 16.7 C 13.36 g/m*3 16.7 C 4.8 km/h
143 26-09-2019 11:50:00 16.8 C 13.58 g/m*3 16.8 C 0 km/h
144 26-09-2019 11:55:00 16.8 C 13.44 g/m*3 16.8 C 1.6 km/h
145 26-09-2019 12:00:00 16.9 C 13.52 g/m*3 16.9 C 8.1 km/h
146 26-09-2019 12:05:00 17.1 C 13.68 g/m*3 17.1 C 3.2 km/h
147 26-09-2019 12:10:00 17.2 C 13.62 g/m*3 17.2 C 4.8 km/h
148 26-09-2019 12:15:00 17.4 C 13.78 g/m*3 17.4 C 6.4 km/h
149 26-09-2019 12:20:00 17.6 C 13.65 g/m*3 17.6 C 6.4 km/h
150 26-09-2019 12:25:00 17.7 C 13.73 g/m*3 17.7 C 6.4 km/h
Sensor: Nr:Datum:Temp:Abs-Feuchte:Windchill:Wind:
Aussen-T/F 151 26-09-2019 12:30:00 17.8 C 13.81 g/m*3 17.8 C 8.1 km/h
152 26-09-2019 12:35:00 17.8 C 13.66 g/m*3 17.8 C 8.1 km/h
153 26-09-2019 12:40:00 17.9 C 13.74 g/m*3 17.9 C 3.2 km/h
154 26-09-2019 12:45:00 18 C 13.98 g/m*3 18 C 1.6 km/h
155 26-09-2019 12:50:00 18 C 13.82 g/m*3 18 C 4.8 km/h
156 26-09-2019 12:55:00 18 C 13.98 g/m*3 18 C 1.6 km/h
157 26-09-2019 13:00:00 17.9 C 13.89 g/m*3 17.9 C 1.6 km/h
158 26-09-2019 13:05:00 17.9 C 14.05 g/m*3 17.9 C 0 km/h
159 26-09-2019 13:10:00 17.9 C 14.05 g/m*3 17.9 C 0 km/h
160 26-09-2019 13:15:00 17.9 C 14.05 g/m*3 17.9 C 3.2 km/h
161 26-09-2019 13:20:00 17.8 C 13.81 g/m*3 17.8 C 3.2 km/h
162 26-09-2019 13:25:00 17.8 C 13.96 g/m*3 17.8 C 0 km/h
163 26-09-2019 13:30:00 17.8 C 13.96 g/m*3 17.8 C 0 km/h
164 26-09-2019 13:35:00 17.8 C 13.96 g/m*3 17.8 C 1.6 km/h
165 26-09-2019 13:40:00 17.7 C 13.73 g/m*3 17.7 C 1.6 km/h
166 26-09-2019 13:45:00 17.7 C 13.88 g/m*3 17.7 C 0 km/h
167 26-09-2019 13:50:00 17.6 C 13.8 g/m*3 17.6 C 0 km/h
168 26-09-2019 13:55:00 17.5 C 13.72 g/m*3 17.5 C 1.6 km/h
169 26-09-2019 14:00:00 17.4 C 13.63 g/m*3 17.4 C 0 km/h
170 26-09-2019 14:05:00 17.3 C 13.55 g/m*3 17.3 C 3.2 km/h
171 26-09-2019 14:10:00 17.3 C 13.55 g/m*3 17.3 C 1.6 km/h
172 26-09-2019 14:15:00 17.3 C 13.7 g/m*3 17.3 C 0 km/h
173 26-09-2019 14:20:00 17.4 C 13.78 g/m*3 17.4 C 0 km/h
174 26-09-2019 14:25:00 17.4 C 13.78 g/m*3 17.4 C 0 km/h
175 26-09-2019 14:30:00 17.4 C 13.78 g/m*3 17.4 C 3.2 km/h
Sensor: Nr:Datum:Temp:Abs-Feuchte:Windchill:Wind:
Aussen-T/F 176 26-09-2019 14:35:00 17.6 C 14.1 g/m*3 17.6 C 0 km/h
177 26-09-2019 14:40:00 17.7 C 14.03 g/m*3 17.7 C 0 km/h
178 26-09-2019 14:45:00 17.7 C 13.88 g/m*3 17.7 C 3.2 km/h
179 26-09-2019 14:50:00 17.8 C 14.12 g/m*3 17.8 C 0 km/h
180 26-09-2019 14:55:00 17.9 C 14.2 g/m*3 17.9 C 0 km/h
181 26-09-2019 15:00:00 17.8 C 13.96 g/m*3 17.8 C 4.8 km/h
182 26-09-2019 15:05:00 17.8 C 13.96 g/m*3 17.8 C 0 km/h
183 26-09-2019 15:10:00 17.8 C 13.96 g/m*3 17.8 C 0 km/h
184 26-09-2019 15:15:00 17.8 C 13.96 g/m*3 17.8 C 0 km/h
185 26-09-2019 15:20:00 17.9 C 14.05 g/m*3 17.9 C 0 km/h
186 26-09-2019 15:25:00 17.9 C 14.2 g/m*3 17.9 C 0 km/h
187 26-09-2019 15:30:00 17.9 C 14.2 g/m*3 17.9 C 0 km/h
188 26-09-2019 15:35:00 18 C 14.13 g/m*3 18 C 0 km/h
189 26-09-2019 15:40:00 18.2 C 14.3 g/m*3 18.2 C 1.6 km/h
190 26-09-2019 15:45:00 18.3 C 14.23 g/m*3 18.3 C 1.6 km/h
191 26-09-2019 15:50:00 18.6 C 14.17 g/m*3 18.6 C 6.4 km/h
192 26-09-2019 15:55:00 18.7 C 14.41 g/m*3 18.7 C 0 km/h
193 26-09-2019 16:00:00 18.8 C 14.33 g/m*3 18.8 C 0 km/h
194 26-09-2019 16:05:00 18.8 C 14.33 g/m*3 18.8 C 0 km/h
195 26-09-2019 16:10:00 18.9 C 14.42 g/m*3 18.9 C 0 km/h
196 26-09-2019 16:15:00 19 C 14.67 g/m*3 19 C 3.2 km/h
197 26-09-2019 16:20:00 19 C 14.5 g/m*3 19 C 4.8 km/h
198 26-09-2019 16:25:00 18.9 C 14.26 g/m*3 18.9 C 8.1 km/h
199 26-09-2019 16:30:00 18.8 C 14.33 g/m*3 18.8 C 9.7 km/h
200 26-09-2019 16:35:00 18.8 C 14.17 g/m*3 18.8 C 4.8 km/h
Sensor: Nr:Datum:Temp:Abs-Feuchte:Windchill:Wind:
Aussen-T/F 201 26-09-2019 16:40:00 18.7 C 14.25 g/m*3 18.7 C 3.2 km/h
202 26-09-2019 16:45:00 18.7 C 14.09 g/m*3 18.7 C 3.2 km/h
203 26-09-2019 16:50:00 18.8 C 14.33 g/m*3 18.8 C 6.4 km/h
204 26-09-2019 16:55:00 18.8 C 14.17 g/m*3 18.8 C 6.4 km/h
205 26-09-2019 17:00:00 18.8 C 14.17 g/m*3 18.8 C 6.4 km/h
206 26-09-2019 17:05:00 18.8 C 14.01 g/m*3 18.8 C 8.1 km/h
207 26-09-2019 17:10:00 18.9 C 14.42 g/m*3 18.9 C 1.6 km/h
208 26-09-2019 17:15:00 19 C 14.34 g/m*3 19 C 4.8 km/h
209 26-09-2019 17:20:00 19.1 C 14.43 g/m*3 19.1 C 0 km/h
210 26-09-2019 17:25:00 19 C 14.01 g/m*3 19 C 6.4 km/h
211 26-09-2019 17:30:00 19 C 14.18 g/m*3 19 C 3.2 km/h
212 26-09-2019 17:35:00 19 C 14.34 g/m*3 19 C 1.6 km/h
213 26-09-2019 17:40:00 18.9 C 14.09 g/m*3 18.9 C 6.4 km/h
214 26-09-2019 17:45:00 18.9 C 14.09 g/m*3 18.9 C 6.4 km/h
215 26-09-2019 17:50:00 18.8 C 14.17 g/m*3 18.8 C 6.4 km/h
216 26-09-2019 17:55:00 18.8 C 14.17 g/m*3 18.8 C 4.8 km/h
217 26-09-2019 18:00:00 18.9 C 14.26 g/m*3 18.9 C 3.2 km/h
218 26-09-2019 18:05:00 18.8 C 14.33 g/m*3 18.8 C 4.8 km/h
219 26-09-2019 18:10:00 18.8 C 14.17 g/m*3 18.8 C 9.7 km/h
220 26-09-2019 18:15:00 18.8 C 14.17 g/m*3 18.8 C 8.1 km/h
221 26-09-2019 18:20:00 18.8 C 14.33 g/m*3 18.8 C 0 km/h
222 26-09-2019 18:25:00 18.8 C 14.33 g/m*3 18.8 C 1.6 km/h
223 26-09-2019 18:30:00 18.8 C 14.33 g/m*3 18.8 C 1.6 km/h
224 26-09-2019 18:35:00 18.7 C 14.25 g/m*3 18.7 C 3.2 km/h
225 26-09-2019 18:40:00 18.7 C 14.25 g/m*3 18.7 C 0 km/h
Sensor: Nr:Datum:Temp:Abs-Feuchte:Windchill:Wind:
Aussen-T/F 226 26-09-2019 18:45:00 18.6 C 14.17 g/m*3 18.6 C 0 km/h
227 26-09-2019 18:50:00 18.5 C 14.08 g/m*3 18.5 C 0 km/h
228 26-09-2019 18:55:00 18.4 C 14.16 g/m*3 18.4 C 0 km/h
229 26-09-2019 19:00:00 18.4 C 14.16 g/m*3 18.4 C 1.6 km/h
230 26-09-2019 19:05:00 18.3 C 14.07 g/m*3 18.3 C 0 km/h
231 26-09-2019 19:10:00 18.3 C 14.07 g/m*3 18.3 C 0 km/h
232 26-09-2019 19:15:00 18.2 C 13.99 g/m*3 18.2 C 0 km/h
233 26-09-2019 19:20:00 18.1 C 13.91 g/m*3 18.1 C 0 km/h
234 26-09-2019 19:25:00 18 C 13.98 g/m*3 18 C 0 km/h
235 26-09-2019 19:30:00 17.9 C 13.89 g/m*3 17.9 C 8.1 km/h
236 26-09-2019 19:35:00 17.9 C 13.89 g/m*3 17.9 C 1.6 km/h
237 26-09-2019 19:40:00 17.9 C 14.05 g/m*3 17.9 C 1.6 km/h
238 26-09-2019 19:45:00 17.9 C 13.89 g/m*3 17.9 C 0 km/h
239 26-09-2019 19:50:00 17.8 C 13.96 g/m*3 17.8 C 3.2 km/h
240 26-09-2019 19:55:00 17.8 C 13.96 g/m*3 17.8 C 8.1 km/h
241 26-09-2019 20:00:00 17.7 C 13.73 g/m*3 17.7 C 4.8 km/h
242 26-09-2019 20:05:00 17.6 C 13.65 g/m*3 17.6 C 4.8 km/h
243 26-09-2019 20:10:00 17.5 C 13.42 g/m*3 17.5 C 4.8 km/h
244 26-09-2019 20:15:00 17.4 C 13.34 g/m*3 17.4 C 9.7 km/h
245 26-09-2019 20:20:00 17.4 C 13.34 g/m*3 17.4 C 3.2 km/h
246 26-09-2019 20:25:00 17.3 C 13.26 g/m*3 17.3 C 6.4 km/h
247 26-09-2019 20:30:00 17.3 C 13.11 g/m*3 17.3 C 9.7 km/h
248 26-09-2019 20:35:00 17.3 C 13.11 g/m*3 17.3 C 1.6 km/h
249 26-09-2019 20:40:00 17.3 C 13.26 g/m*3 17.3 C 8.1 km/h
250 26-09-2019 20:45:00 17.3 C 13.11 g/m*3 17.3 C 8.1 km/h
Sensor: Nr:Datum:Temp:Abs-Feuchte:Windchill:Wind:
Aussen-T/F 251 26-09-2019 20:50:00 17.3 C 13.11 g/m*3 17.3 C 6.4 km/h
252 26-09-2019 20:55:00 17.3 C 13.11 g/m*3 17.3 C 4.8 km/h
253 26-09-2019 21:00:00 17.3 C 13.11 g/m*3 17.3 C 1.6 km/h
254 26-09-2019 21:05:00 17.3 C 13.26 g/m*3 17.3 C 1.6 km/h
255 26-09-2019 21:10:00 17.3 C 13.26 g/m*3 17.3 C 0 km/h
256 26-09-2019 21:15:00 17.3 C 13.11 g/m*3 17.3 C 9.7 km/h
257 26-09-2019 21:20:00 17.3 C 13.11 g/m*3 17.3 C 1.6 km/h
258 26-09-2019 21:25:00 17.3 C 13.11 g/m*3 17.3 C 1.6 km/h
259 26-09-2019 21:30:00 17.3 C 13.11 g/m*3 17.3 C 6.4 km/h
260 26-09-2019 21:35:00 17.3 C 13.11 g/m*3 17.3 C 11.3 km/h
261 26-09-2019 21:40:00 17.4 C 13.19 g/m*3 17.4 C 3.2 km/h
262 26-09-2019 21:45:00 17.4 C 13.19 g/m*3 17.4 C 8.1 km/h
263 26-09-2019 21:50:00 17.6 C 13.2 g/m*3 17.6 C 14.5 km/h
264 26-09-2019 21:55:00 17.6 C 13.2 g/m*3 17.6 C 6.4 km/h
265 26-09-2019 22:00:00 17.6 C 13.2 g/m*3 17.6 C 11.3 km/h
266 26-09-2019 22:05:00 17.7 C 13.13 g/m*3 17.7 C 11.3 km/h
267 26-09-2019 22:10:00 17.7 C 13.13 g/m*3 17.7 C 9.7 km/h
268 26-09-2019 22:15:00 17.7 C 13.13 g/m*3 17.7 C 14.5 km/h
269 26-09-2019 22:20:00 17.7 C 13.13 g/m*3 17.7 C 8.1 km/h
270 26-09-2019 22:25:00 17.7 C 13.13 g/m*3 17.7 C 11.3 km/h
271 26-09-2019 22:30:00 17.7 C 12.98 g/m*3 17.7 C 11.3 km/h
272 26-09-2019 22:35:00 17.7 C 12.98 g/m*3 17.7 C 9.7 km/h
273 26-09-2019 22:40:00 17.8 C 13.05 g/m*3 17.8 C 9.7 km/h
274 26-09-2019 22:45:00 17.8 C 13.05 g/m*3 17.8 C 8.1 km/h
275 26-09-2019 22:50:00 17.8 C 13.05 g/m*3 17.8 C 9.7 km/h
Sensor: Nr:Datum:Temp:Abs-Feuchte:Windchill:Wind:
Aussen-T/F 276 26-09-2019 22:55:00 17.8 C 13.05 g/m*3 17.8 C 8.1 km/h
277 26-09-2019 23:00:00 17.8 C 13.05 g/m*3 17.8 C 19.3 km/h
278 26-09-2019 23:05:00 17.9 C 12.98 g/m*3 17.9 C 4.8 km/h
279 26-09-2019 23:10:00 17.9 C 12.98 g/m*3 17.9 C 6.4 km/h
280 26-09-2019 23:15:00 17.8 C 12.9 g/m*3 17.8 C 9.7 km/h
281 26-09-2019 23:20:00 17.9 C 12.98 g/m*3 17.9 C 4.8 km/h
282 26-09-2019 23:25:00 17.9 C 12.98 g/m*3 17.9 C 4.8 km/h
283 26-09-2019 23:30:00 17.8 C 13.05 g/m*3 17.8 C 0 km/h
284 26-09-2019 23:35:00 17.8 C 13.05 g/m*3 17.8 C 6.4 km/h
285 26-09-2019 23:40:00 17.7 C 12.98 g/m*3 17.7 C 4.8 km/h
286 26-09-2019 23:45:00 17.7 C 12.98 g/m*3 17.7 C 6.4 km/h
287 26-09-2019 23:50:00 17.8 C 13.05 g/m*3 17.8 C 11.3 km/h
288 26-09-2019 23:55:00 17.8 C 12.9 g/m*3 17.8 C 11.3 km/h
289 27-09-2019 00:00:00 18 C 12.9 g/m*3 18 C 11.3 km/h
290 27-09-2019 00:05:00 18.1 C 12.98 g/m*3 18.1 C 14.5 km/h
291 27-09-2019 00:10:00 18.1 C 12.82 g/m*3 18.1 C 9.7 km/h
292 27-09-2019 00:15:00 18.1 C 12.82 g/m*3 18.1 C 4.8 km/h
293 27-09-2019 00:20:00 18.1 C 12.98 g/m*3 18.1 C 1.6 km/h
294 27-09-2019 00:25:00 18 C 12.9 g/m*3 18 C 11.3 km/h
295 27-09-2019 00:30:00 18 C 12.9 g/m*3 18 C 4.8 km/h
296 27-09-2019 00:35:00 17.9 C 12.83 g/m*3 17.9 C 4.8 km/h
297 27-09-2019 00:40:00 17.9 C 12.83 g/m*3 17.9 C 6.4 km/h
298 27-09-2019 00:45:00 17.9 C 12.83 g/m*3 17.9 C 4.8 km/h
299 27-09-2019 00:50:00 17.9 C 12.83 g/m*3 17.9 C 8.1 km/h
300 27-09-2019 00:55:00 17.8 C 12.75 g/m*3 17.8 C 1.6 km/h
Sensor: Nr:Datum:Temp:Abs-Feuchte:Windchill:Wind:
Aussen-T/F 301 27-09-2019 01:00:00 17.8 C 12.75 g/m*3 17.8 C 6.4 km/h
302 27-09-2019 01:05:00 17.8 C 12.75 g/m*3 17.8 C 6.4 km/h
303 27-09-2019 01:10:00 17.9 C 12.67 g/m*3 17.9 C 9.7 km/h
304 27-09-2019 01:15:00 18 C 12.75 g/m*3 18 C 16.1 km/h
305 27-09-2019 01:20:00 18.1 C 12.82 g/m*3 18.1 C 6.4 km/h
306 27-09-2019 01:25:00 18.1 C 12.82 g/m*3 18.1 C 11.3 km/h
307 27-09-2019 01:30:00 18.1 C 12.67 g/m*3 18.1 C 11.3 km/h
308 27-09-2019 01:35:00 18.2 C 12.75 g/m*3 18.2 C 11.3 km/h
309 27-09-2019 01:40:00 18.2 C 12.59 g/m*3 18.2 C 11.3 km/h
310 27-09-2019 01:45:00 18.2 C 12.59 g/m*3 18.2 C 14.5 km/h
311 27-09-2019 01:50:00 18.1 C 12.52 g/m*3 18.1 C 9.7 km/h
312 27-09-2019 01:55:00 18.1 C 12.52 g/m*3 18.1 C 8.1 km/h
313 27-09-2019 02:00:00 18.1 C 12.52 g/m*3 18.1 C 12.9 km/h
314 27-09-2019 02:05:00 18.1 C 12.52 g/m*3 18.1 C 11.3 km/h
315 27-09-2019 02:10:00 18.1 C 12.52 g/m*3 18.1 C 4.8 km/h
316 27-09-2019 02:15:00 18.1 C 12.52 g/m*3 18.1 C 12.9 km/h
317 27-09-2019 02:20:00 18.1 C 12.52 g/m*3 18.1 C 11.3 km/h
318 27-09-2019 02:25:00 18.1 C 12.52 g/m*3 18.1 C 11.3 km/h
319 27-09-2019 02:30:00 18.1 C 12.52 g/m*3 18.1 C 12.9 km/h
320 27-09-2019 02:35:00 18 C 12.59 g/m*3 18 C 3.2 km/h
321 27-09-2019 02:40:00 17.9 C 12.52 g/m*3 17.9 C 8.1 km/h
322 27-09-2019 02:45:00 17.9 C 12.67 g/m*3 17.9 C 8.1 km/h
323 27-09-2019 02:50:00 17.7 C 12.82 g/m*3 17.7 C 8.1 km/h
324 27-09-2019 02:55:00 17.4 C 12.75 g/m*3 17.4 C 11.3 km/h
325 27-09-2019 03:00:00 17.3 C 12.82 g/m*3 17.3 C 8.1 km/h
Sensor: Nr:Datum:Temp:Abs-Feuchte:Windchill:Wind:
Aussen-T/F 326 27-09-2019 03:05:00 17.1 C 12.81 g/m*3 17.1 C 12.9 km/h
327 27-09-2019 03:10:00 16.9 C 12.8 g/m*3 16.9 C 9.7 km/h
328 27-09-2019 03:15:00 16.8 C 12.72 g/m*3 16.8 C 9.7 km/h
329 27-09-2019 03:20:00 16.8 C 12.87 g/m*3 16.8 C 8.1 km/h
330 27-09-2019 03:25:00 16.7 C 12.79 g/m*3 16.7 C 4.8 km/h
331 27-09-2019 03:30:00 16.6 C 12.86 g/m*3 16.6 C 1.6 km/h
332 27-09-2019 03:35:00 16.6 C 12.86 g/m*3 16.6 C 6.4 km/h
333 27-09-2019 03:40:00 16.5 C 12.78 g/m*3 16.5 C 9.7 km/h
334 27-09-2019 03:45:00 16.5 C 12.78 g/m*3 16.5 C 1.6 km/h
335 27-09-2019 03:50:00 16.4 C 12.84 g/m*3 16.4 C 1.6 km/h
336 27-09-2019 03:55:00 16.4 C 12.84 g/m*3 16.4 C 0 km/h
337 27-09-2019 04:00:00 16.4 C 12.84 g/m*3 16.4 C 11.3 km/h
338 27-09-2019 04:05:00 16.4 C 12.84 g/m*3 16.4 C 0 km/h
339 27-09-2019 04:10:00 16.3 C 12.76 g/m*3 16.3 C 11.3 km/h
340 27-09-2019 04:15:00 16.4 C 12.84 g/m*3 16.4 C 1.6 km/h
341 27-09-2019 04:20:00 16.3 C 12.76 g/m*3 16.3 C 1.6 km/h
342 27-09-2019 04:25:00 16.3 C 12.76 g/m*3 16.3 C 0 km/h
343 27-09-2019 04:30:00 16.3 C 12.9 g/m*3 16.3 C 0 km/h
344 27-09-2019 04:35:00 16.3 C 12.9 g/m*3 16.3 C 0 km/h
345 27-09-2019 04:40:00 16.2 C 12.82 g/m*3 16.2 C 3.2 km/h
346 27-09-2019 04:45:00 16.2 C 12.82 g/m*3 16.2 C 4.8 km/h
347 27-09-2019 04:50:00 16.2 C 12.82 g/m*3 16.2 C 1.6 km/h
348 27-09-2019 04:55:00 16.2 C 12.82 g/m*3 16.2 C 0 km/h
349 27-09-2019 05:00:00 16.2 C 12.82 g/m*3 16.2 C 3.2 km/h
350 27-09-2019 05:05:00 16.2 C 12.82 g/m*3 16.2 C 1.6 km/h
Sensor: Nr:Datum:Temp:Abs-Feuchte:Windchill:Wind:
Aussen-T/F 351 27-09-2019 05:10:00 16.2 C 12.82 g/m*3 16.2 C 6.4 km/h
352 27-09-2019 05:15:00 16.2 C 12.82 g/m*3 16.2 C 1.6 km/h
353 27-09-2019 05:20:00 16.2 C 12.82 g/m*3 16.2 C 4.8 km/h
354 27-09-2019 05:25:00 16.2 C 12.82 g/m*3 16.2 C 0 km/h
355 27-09-2019 05:30:00 16.2 C 12.82 g/m*3 16.2 C 3.2 km/h
356 27-09-2019 05:35:00 16.2 C 12.82 g/m*3 16.2 C 0 km/h
357 27-09-2019 05:40:00 16.1 C 12.75 g/m*3 16.1 C 3.2 km/h
358 27-09-2019 05:45:00 16.1 C 12.75 g/m*3 16.1 C 0 km/h
359 27-09-2019 05:50:00 16.1 C 12.75 g/m*3 16.1 C 1.6 km/h
360 27-09-2019 05:55:00 16.1 C 12.88 g/m*3 16.1 C 0 km/h
361 27-09-2019 06:00:00 16.1 C 12.88 g/m*3 16.1 C 0 km/h
362 27-09-2019 06:05:00 16.1 C 12.88 g/m*3 16.1 C 0 km/h
363 27-09-2019 06:10:00 16 C 12.81 g/m*3 16 C 0 km/h
364 27-09-2019 06:15:00 15.9 C 12.73 g/m*3 15.9 C 0 km/h
365 27-09-2019 06:20:00 15.9 C 12.73 g/m*3 15.9 C 0 km/h
366 27-09-2019 06:25:00 15.9 C 12.73 g/m*3 15.9 C 0 km/h
367 27-09-2019 06:30:00 15.9 C 12.87 g/m*3 15.9 C 0 km/h
368 27-09-2019 06:35:00 15.8 C 12.79 g/m*3 15.8 C 0 km/h
369 27-09-2019 06:40:00 15.8 C 12.79 g/m*3 15.8 C 8.1 km/h
370 27-09-2019 06:45:00 15.6 C 12.5 g/m*3 15.6 C 9.7 km/h
371 27-09-2019 06:50:00 15.3 C 12.28 g/m*3 15.3 C 6.4 km/h
372 27-09-2019 06:55:00 15.1 C 12.13 g/m*3 15.1 C 1.6 km/h
373 27-09-2019 07:00:00 14.8 C 11.91 g/m*3 14.8 C 3.2 km/h
374 27-09-2019 07:05:00 14.7 C 11.83 g/m*3 14.7 C 0 km/h
375 27-09-2019 07:10:00 14.6 C 11.76 g/m*3 14.6 C 0 km/h
Sensor: Nr:Datum:Temp:Abs-Feuchte:Windchill:Wind:
Aussen-T/F 376 27-09-2019 07:15:00 14.5 C 11.69 g/m*3 14.5 C 0 km/h
377 27-09-2019 07:20:00 14.4 C 11.74 g/m*3 14.4 C 0 km/h
378 27-09-2019 07:25:00 14.4 C 11.74 g/m*3 14.4 C 0 km/h
379 27-09-2019 07:30:00 14.4 C 11.74 g/m*3 14.4 C 3.2 km/h
380 27-09-2019 07:35:00 14.3 C 11.67 g/m*3 14.3 C 3.2 km/h
381 27-09-2019 07:40:00 14.3 C 11.67 g/m*3 14.3 C 1.6 km/h
382 27-09-2019 07:45:00 14.2 C 11.6 g/m*3 14.2 C 8.1 km/h
383 27-09-2019 07:50:00 14.2 C 11.6 g/m*3 14.2 C 0 km/h
384 27-09-2019 07:55:00 14.2 C 11.6 g/m*3 14.2 C 8.1 km/h
385 27-09-2019 08:00:00 14.1 C 11.53 g/m*3 14.1 C 1.6 km/h
386 27-09-2019 08:05:00 14.1 C 11.53 g/m*3 14.1 C 0 km/h
387 27-09-2019 08:10:00 14.1 C 11.53 g/m*3 14.1 C 0 km/h
388 27-09-2019 08:15:00 14.1 C 11.65 g/m*3 14.1 C 1.6 km/h
389 27-09-2019 08:20:00 14.1 C 11.65 g/m*3 14.1 C 0 km/h
390 27-09-2019 08:25:00 14.1 C 11.65 g/m*3 14.1 C 0 km/h
391 27-09-2019 08:30:00 14.1 C 11.65 g/m*3 14.1 C 0 km/h
392 27-09-2019 08:35:00 14.1 C 11.65 g/m*3 14.1 C 1.6 km/h
393 27-09-2019 08:40:00 14.1 C 11.65 g/m*3 14.1 C 0 km/h
394 27-09-2019 08:45:00 14.1 C 11.65 g/m*3 14.1 C 0 km/h
395 27-09-2019 08:50:00 14.1 C 11.65 g/m*3 14.1 C 0 km/h
396 27-09-2019 08:55:00 14.1 C 11.65 g/m*3 14.1 C 3.2 km/h
397 27-09-2019 09:00:00 14 C 11.58 g/m*3 14 C 12.9 km/h
398 27-09-2019 09:05:00 14 C 11.58 g/m*3 14 C 1.6 km/h
399 27-09-2019 09:10:00 14 C 11.58 g/m*3 14 C 4.8 km/h
400 27-09-2019 09:15:00 13.9 C 11.51 g/m*3 13.9 C 6.4 km/h
Sensor: Nr:Datum:Temp:Abs-Feuchte:Windchill:Wind:
Aussen-T/F 401 27-09-2019 09:20:00 13.9 C 11.51 g/m*3 13.9 C 1.6 km/h
402 27-09-2019 09:25:00 14 C 11.58 g/m*3 14 C 1.6 km/h
403 27-09-2019 09:30:00 13.9 C 11.51 g/m*3 13.9 C 8.1 km/h
404 27-09-2019 09:35:00 13.9 C 11.51 g/m*3 13.9 C 3.2 km/h
405 27-09-2019 09:40:00 14 C 11.58 g/m*3 14 C 1.6 km/h
406 27-09-2019 09:45:00 14 C 11.58 g/m*3 14 C 1.6 km/h
407 27-09-2019 09:50:00 14.1 C 11.65 g/m*3 14.1 C 1.6 km/h
408 27-09-2019 09:55:00 14.2 C 11.72 g/m*3 14.2 C 0 km/h
409 27-09-2019 10:00:00 14.3 C 11.79 g/m*3 14.3 C 4.8 km/h
410 27-09-2019 10:05:00 14.4 C 11.87 g/m*3 14.4 C 0 km/h
411 27-09-2019 10:10:00 14.5 C 11.94 g/m*3 14.5 C 6.4 km/h
412 27-09-2019 10:15:00 14.5 C 11.94 g/m*3 14.5 C 3.2 km/h
413 27-09-2019 10:20:00 14.6 C 12.01 g/m*3 14.6 C 8.1 km/h
414 27-09-2019 10:25:00 14.7 C 12.09 g/m*3 14.7 C 4.8 km/h
415 27-09-2019 10:30:00 14.7 C 12.09 g/m*3 14.7 C 8.1 km/h
416 27-09-2019 10:35:00 14.8 C 12.03 g/m*3 14.8 C 8.1 km/h
417 27-09-2019 10:40:00 14.8 C 12.03 g/m*3 14.8 C 9.7 km/h
418 27-09-2019 10:45:00 14.9 C 12.11 g/m*3 14.9 C 11.3 km/h
419 27-09-2019 10:50:00 15 C 12.18 g/m*3 15 C 6.4 km/h
420 27-09-2019 10:55:00 15.1 C 12.13 g/m*3 15.1 C 8.1 km/h
421 27-09-2019 11:00:00 15.2 C 12.2 g/m*3 15.2 C 6.4 km/h
422 27-09-2019 11:05:00 15.3 C 12.28 g/m*3 15.3 C 6.4 km/h
423 27-09-2019 11:10:00 15.3 C 12.28 g/m*3 15.3 C 12.9 km/h
424 27-09-2019 11:15:00 15.4 C 12.22 g/m*3 15.4 C 4.8 km/h
425 27-09-2019 11:20:00 15.5 C 12.29 g/m*3 15.5 C 6.4 km/h
Sensor: Nr:Datum:Temp:Abs-Feuchte:Windchill:Wind:
Aussen-T/F 426 27-09-2019 11:25:00 15.4 C 12.22 g/m*3 15.4 C 8.1 km/h
427 27-09-2019 11:30:00 15.4 C 12.09 g/m*3 15.4 C 4.8 km/h
428 27-09-2019 11:35:00 15.3 C 12.01 g/m*3 15.3 C 4.8 km/h
429 27-09-2019 11:40:00 15.3 C 12.01 g/m*3 15.3 C 8.1 km/h
430 27-09-2019 11:45:00 15.3 C 12.01 g/m*3 15.3 C 8.1 km/h
431 27-09-2019 11:50:00 15.4 C 12.22 g/m*3 15.4 C 6.4 km/h
432 27-09-2019 11:55:00 15.4 C 12.09 g/m*3 15.4 C 3.2 km/h
433 27-09-2019 12:00:00 15.6 C 12.23 g/m*3 15.6 C 9.7 km/h
434 27-09-2019 12:05:00 15.6 C 12.23 g/m*3 15.6 C 9.7 km/h
435 27-09-2019 12:10:00 15.6 C 12.23 g/m*3 15.6 C 4.8 km/h
436 27-09-2019 12:15:00 15.6 C 12.1 g/m*3 15.6 C 8.1 km/h
437 27-09-2019 12:20:00 15.7 C 12.18 g/m*3 15.7 C 9.7 km/h
438 27-09-2019 12:25:00 15.8 C 12.11 g/m*3 15.8 C 11.3 km/h
439 27-09-2019 12:30:00 15.9 C 12.05 g/m*3 15.9 C 9.7 km/h
440 27-09-2019 12:35:00 16.1 C 12.06 g/m*3 16.1 C 14.5 km/h
441 27-09-2019 12:40:00 16.2 C 12 g/m*3 16.2 C 16.1 km/h
442 27-09-2019 12:45:00 16.3 C 12.07 g/m*3 16.3 C 12.9 km/h
443 27-09-2019 12:50:00 16.5 C 12.08 g/m*3 16.5 C 12.9 km/h
444 27-09-2019 12:55:00 16.7 C 11.94 g/m*3 16.7 C 16.1 km/h
445 27-09-2019 13:00:00 16.8 C 12.15 g/m*3 16.8 C 14.5 km/h
446 27-09-2019 13:05:00 16.9 C 11.94 g/m*3 16.9 C 12.9 km/h
447 27-09-2019 13:10:00 17 C 12.01 g/m*3 17 C 9.7 km/h
448 27-09-2019 13:15:00 17 C 11.72 g/m*3 17 C 11.3 km/h
449 27-09-2019 13:20:00 17.1 C 11.94 g/m*3 17.1 C 9.7 km/h
450 27-09-2019 13:25:00 17.3 C 11.93 g/m*3 17.3 C 9.7 km/h
Sensor: Nr:Datum:Temp:Abs-Feuchte:Windchill:Wind:
Aussen-T/F 451 27-09-2019 13:30:00 17.4 C 12 g/m*3 17.4 C 16.1 km/h
452 27-09-2019 13:35:00 17.5 C 11.93 g/m*3 17.5 C 11.3 km/h
453 27-09-2019 13:40:00 17.6 C 12 g/m*3 17.6 C 14.5 km/h
454 27-09-2019 13:45:00 17.6 C 11.85 g/m*3 17.6 C 14.5 km/h
455 27-09-2019 13:50:00 17.6 C 12 g/m*3 17.6 C 11.3 km/h
456 27-09-2019 13:55:00 17.7 C 11.92 g/m*3 17.7 C 19.3 km/h
457 27-09-2019 14:00:00 17.7 C 11.92 g/m*3 17.7 C 9.7 km/h
458 27-09-2019 14:05:00 17.7 C 11.62 g/m*3 17.7 C 16.1 km/h
459 27-09-2019 14:10:00 17.8 C 11.69 g/m*3 17.8 C 12.9 km/h
460 27-09-2019 14:15:00 17.9 C 11.76 g/m*3 17.9 C 17.7 km/h
461 27-09-2019 14:20:00 18.1 C 11.9 g/m*3 18.1 C 11.3 km/h
462 27-09-2019 14:25:00 18.3 C 12.04 g/m*3 18.3 C 12.9 km/h
463 27-09-2019 14:30:00 18.3 C 11.73 g/m*3 18.3 C 14.5 km/h
464 27-09-2019 14:35:00 18.4 C 11.64 g/m*3 18.4 C 17.7 km/h
465 27-09-2019 14:40:00 18.4 C 11.64 g/m*3 18.4 C 19.3 km/h
466 27-09-2019 14:45:00 18.4 C 11.8 g/m*3 18.4 C 17.7 km/h
467 27-09-2019 14:50:00 18.4 C 11.64 g/m*3 18.4 C 19.3 km/h
468 27-09-2019 14:55:00 18.5 C 11.87 g/m*3 18.5 C 9.7 km/h
469 27-09-2019 15:00:00 18.6 C 11.94 g/m*3 18.6 C 16.1 km/h
470 27-09-2019 15:05:00 18.6 C 11.94 g/m*3 18.6 C 12.9 km/h
471 27-09-2019 15:10:00 18.4 C 11.8 g/m*3 18.4 C 9.7 km/h
472 27-09-2019 15:15:00 18.5 C 11.87 g/m*3 18.5 C 11.3 km/h
473 27-09-2019 15:20:00 18.4 C 11.64 g/m*3 18.4 C 12.9 km/h
474 27-09-2019 15:25:00 18.2 C 11.5 g/m*3 18.2 C 14.5 km/h
475 27-09-2019 15:30:00 18.2 C 11.81 g/m*3 18.2 C 20.9 km/h
Sensor: Nr:Datum:Temp:Abs-Feuchte:Windchill:Wind:
Aussen-T/F 476 27-09-2019 15:35:00 18.1 C 11.74 g/m*3 18.1 C 20.9 km/h
477 27-09-2019 15:40:00 18 C 11.67 g/m*3 18 C 14.5 km/h
478 27-09-2019 15:45:00 17.9 C 11.6 g/m*3 17.9 C 9.7 km/h
479 27-09-2019 15:50:00 17.9 C 11.91 g/m*3 17.9 C 9.7 km/h
480 27-09-2019 15:55:00 17.8 C 11.99 g/m*3 17.8 C 12.9 km/h
481 27-09-2019 16:00:00 17.7 C 12.07 g/m*3 17.7 C 12.9 km/h
482 27-09-2019 16:05:00 17.7 C 12.07 g/m*3 17.7 C 16.1 km/h
483 27-09-2019 16:10:00 17.7 C 11.62 g/m*3 17.7 C 12.9 km/h
484 27-09-2019 16:15:00 17.8 C 11.69 g/m*3 17.8 C 14.5 km/h
485 27-09-2019 16:20:00 17.8 C 11.84 g/m*3 17.8 C 9.7 km/h
486 27-09-2019 16:25:00 17.9 C 11.76 g/m*3 17.9 C 12.9 km/h
487 27-09-2019 16:30:00 18 C 11.67 g/m*3 18 C 9.7 km/h
488 27-09-2019 16:35:00 18.1 C 11.74 g/m*3 18.1 C 9.7 km/h
489 27-09-2019 16:40:00 18.1 C 11.74 g/m*3 18.1 C 12.9 km/h
490 27-09-2019 16:45:00 18.2 C 11.81 g/m*3 18.2 C 8.1 km/h
491 27-09-2019 16:50:00 18.3 C 11.73 g/m*3 18.3 C 14.5 km/h
492 27-09-2019 16:55:00 18.3 C 11.73 g/m*3 18.3 C 11.3 km/h
493 27-09-2019 17:00:00 18.4 C 11.64 g/m*3 18.4 C 11.3 km/h
494 27-09-2019 17:05:00 18.6 C 11.94 g/m*3 18.6 C 12.9 km/h
495 27-09-2019 17:10:00 18.8 C 11.76 g/m*3 18.8 C 9.7 km/h
496 27-09-2019 17:15:00 18.9 C 11.99 g/m*3 18.9 C 11.3 km/h
497 27-09-2019 17:20:00 19.1 C 11.8 g/m*3 19.1 C 12.9 km/h
498 27-09-2019 17:25:00 19.1 C 11.8 g/m*3 19.1 C 16.1 km/h
499 27-09-2019 17:30:00 19 C 11.73 g/m*3 19 C 17.7 km/h
500 27-09-2019 17:35:00 19.1 C 11.47 g/m*3 19.1 C 12.9 km/h
Sensor: Nr:Datum:Temp:Abs-Feuchte:Windchill:Wind:
Aussen-T/F 501 27-09-2019 17:40:00 19.2 C 11.71 g/m*3 19.2 C 12.9 km/h
502 27-09-2019 17:45:00 19.2 C 11.87 g/m*3 19.2 C 9.7 km/h
503 27-09-2019 17:50:00 19.2 C 11.87 g/m*3 19.2 C 9.7 km/h
504 27-09-2019 17:55:00 19.2 C 11.71 g/m*3 19.2 C 11.3 km/h
505 27-09-2019 18:00:00 19.1 C 11.8 g/m*3 19.1 C 11.3 km/h
506 27-09-2019 18:05:00 18.7 C 11.85 g/m*3 18.7 C 11.3 km/h
507 27-09-2019 18:10:00 18.4 C 11.64 g/m*3 18.4 C 9.7 km/h
508 27-09-2019 18:15:00 18.1 C 11.59 g/m*3 18.1 C 8.1 km/h
509 27-09-2019 18:20:00 17.8 C 11.38 g/m*3 17.8 C 12.9 km/h
510 27-09-2019 18:25:00 17.6 C 11.4 g/m*3 17.6 C 8.1 km/h
511 27-09-2019 18:30:00 17.6 C 11.55 g/m*3 17.6 C 11.3 km/h
512 27-09-2019 18:35:00 17.7 C 11.47 g/m*3 17.7 C 9.7 km/h
513 27-09-2019 18:40:00 17.9 C 11.45 g/m*3 17.9 C 14.5 km/h
514 27-09-2019 18:45:00 18 C 11.52 g/m*3 18 C 12.9 km/h
515 27-09-2019 18:50:00 17.8 C 11.54 g/m*3 17.8 C 4.8 km/h
516 27-09-2019 18:55:00 17.5 C 11.33 g/m*3 17.5 C 14.5 km/h
517 27-09-2019 19:00:00 17.2 C 11.28 g/m*3 17.2 C 14.5 km/h
518 27-09-2019 19:05:00 16.9 C 11.22 g/m*3 16.9 C 8.1 km/h
519 27-09-2019 19:10:00 16.7 C 11.23 g/m*3 16.7 C 4.8 km/h
520 27-09-2019 19:15:00 16.5 C 11.23 g/m*3 16.5 C 0 km/h
521 27-09-2019 19:20:00 16.2 C 11.17 g/m*3 16.2 C 0 km/h
522 27-09-2019 19:25:00 15.9 C 11.24 g/m*3 15.9 C 3.2 km/h
523 27-09-2019 19:30:00 15.8 C 11.17 g/m*3 15.8 C 4.8 km/h
524 27-09-2019 19:35:00 15.7 C 11.24 g/m*3 15.7 C 8.1 km/h
525 27-09-2019 19:40:00 15.6 C 11.3 g/m*3 15.6 C 0 km/h
Sensor: Nr:Datum:Temp:Abs-Feuchte:Windchill:Wind:
Aussen-T/F 526 27-09-2019 19:45:00 15.5 C 11.24 g/m*3 15.5 C 1.6 km/h
527 27-09-2019 19:50:00 15.4 C 11.3 g/m*3 15.4 C 0 km/h
528 27-09-2019 19:55:00 15.3 C 11.23 g/m*3 15.3 C 0 km/h
529 27-09-2019 20:00:00 15.3 C 11.23 g/m*3 15.3 C 0 km/h
530 27-09-2019 20:05:00 15.2 C 11.16 g/m*3 15.2 C 0 km/h
531 27-09-2019 20:10:00 15.2 C 11.29 g/m*3 15.2 C 0 km/h
532 27-09-2019 20:15:00 15.2 C 11.29 g/m*3 15.2 C 0 km/h
533 27-09-2019 20:20:00 15.2 C 11.42 g/m*3 15.2 C 0 km/h
534 27-09-2019 20:25:00 15.2 C 11.42 g/m*3 15.2 C 0 km/h
535 27-09-2019 20:30:00 15.1 C 11.35 g/m*3 15.1 C 3.2 km/h
536 27-09-2019 20:35:00 15.1 C 11.48 g/m*3 15.1 C 0 km/h
537 27-09-2019 20:40:00 15.1 C 11.48 g/m*3 15.1 C 0 km/h
538 27-09-2019 20:45:00 15.1 C 11.48 g/m*3 15.1 C 0 km/h
539 27-09-2019 20:50:00 15 C 11.41 g/m*3 15 C 0 km/h
540 27-09-2019 20:55:00 14.9 C 11.34 g/m*3 14.9 C 0 km/h
541 27-09-2019 21:00:00 14.8 C 11.27 g/m*3 14.8 C 1.6 km/h
542 27-09-2019 21:05:00 14.6 C 11.14 g/m*3 14.6 C 1.6 km/h
543 27-09-2019 21:10:00 14.4 C 11 g/m*3 14.4 C 0 km/h
544 27-09-2019 21:15:00 14.3 C 10.93 g/m*3 14.3 C 0 km/h
545 27-09-2019 21:20:00 14.3 C 11.06 g/m*3 14.3 C 0 km/h
546 27-09-2019 21:25:00 14.2 C 10.99 g/m*3 14.2 C 0 km/h
547 27-09-2019 21:30:00 14.2 C 10.99 g/m*3 14.2 C 0 km/h
548 27-09-2019 21:35:00 14.1 C 11.04 g/m*3 14.1 C 0 km/h
549 27-09-2019 21:40:00 14.2 C 11.11 g/m*3 14.2 C 0 km/h
550 27-09-2019 21:45:00 14.1 C 11.04 g/m*3 14.1 C 0 km/h
Sensor: Nr:Datum:Temp:Abs-Feuchte:Windchill:Wind:
Aussen-T/F 551 27-09-2019 21:50:00 14.1 C 11.17 g/m*3 14.1 C 0 km/h
552 27-09-2019 21:55:00 14 C 10.98 g/m*3 14 C 0 km/h
553 27-09-2019 22:00:00 14 C 11.1 g/m*3 14 C 0 km/h
554 27-09-2019 22:05:00 14 C 11.1 g/m*3 14 C 0 km/h
555 27-09-2019 22:10:00 14 C 11.1 g/m*3 14 C 0 km/h
556 27-09-2019 22:15:00 14 C 11.1 g/m*3 14 C 0 km/h
557 27-09-2019 22:20:00 13.9 C 11.03 g/m*3 13.9 C 0 km/h
558 27-09-2019 22:25:00 13.8 C 10.96 g/m*3 13.8 C 0 km/h
559 27-09-2019 22:30:00 13.8 C 10.96 g/m*3 13.8 C 0 km/h
560 27-09-2019 22:35:00 13.7 C 11.01 g/m*3 13.7 C 0 km/h
561 27-09-2019 22:40:00 13.7 C 11.01 g/m*3 13.7 C 0 km/h
562 27-09-2019 22:45:00 13.7 C 11.01 g/m*3 13.7 C 0 km/h
563 27-09-2019 22:50:00 13.7 C 11.01 g/m*3 13.7 C 0 km/h
564 27-09-2019 22:55:00 13.7 C 11.13 g/m*3 13.7 C 0 km/h
565 27-09-2019 23:00:00 13.7 C 11.13 g/m*3 13.7 C 0 km/h
566 27-09-2019 23:05:00 13.8 C 11.2 g/m*3 13.8 C 0 km/h
567 27-09-2019 23:10:00 13.8 C 11.2 g/m*3 13.8 C 0 km/h
568 27-09-2019 23:15:00 13.7 C 11.13 g/m*3 13.7 C 0 km/h
569 27-09-2019 23:20:00 13.7 C 11.13 g/m*3 13.7 C 0 km/h
570 27-09-2019 23:25:00 13.6 C 10.95 g/m*3 13.6 C 0 km/h
571 27-09-2019 23:30:00 13.4 C 10.81 g/m*3 13.4 C 0 km/h
572 27-09-2019 23:35:00 13.4 C 10.93 g/m*3 13.4 C 0 km/h
573 27-09-2019 23:40:00 13.3 C 10.86 g/m*3 13.3 C 0 km/h
574 27-09-2019 23:45:00 13.3 C 10.86 g/m*3 13.3 C 0 km/h
575 27-09-2019 23:50:00 13.2 C 10.79 g/m*3 13.2 C 0 km/h
Sensor: Nr:Datum:Temp:Abs-Feuchte:Windchill:Wind:
Aussen-T/F 576 27-09-2019 23:55:00 13.1 C 10.73 g/m*3 13.1 C 0 km/h
577 28-09-2019 00:00:00 13 C 10.66 g/m*3 13 C 0 km/h
578 28-09-2019 00:05:00 12.9 C 10.59 g/m*3 12.9 C 0 km/h
579 28-09-2019 00:10:00 12.9 C 10.59 g/m*3 12.9 C 0 km/h
580 28-09-2019 00:15:00 12.9 C 10.59 g/m*3 12.9 C 0 km/h
581 28-09-2019 00:20:00 12.9 C 10.71 g/m*3 12.9 C 0 km/h
582 28-09-2019 00:25:00 12.9 C 10.59 g/m*3 12.9 C 1.6 km/h
583 28-09-2019 00:30:00 12.9 C 10.71 g/m*3 12.9 C 1.6 km/h
584 28-09-2019 00:35:00 12.9 C 10.71 g/m*3 12.9 C 0 km/h
585 28-09-2019 00:40:00 12.8 C 10.64 g/m*3 12.8 C 0 km/h
586 28-09-2019 00:45:00 12.8 C 10.64 g/m*3 12.8 C 0 km/h
587 28-09-2019 00:50:00 12.8 C 10.64 g/m*3 12.8 C 3.2 km/h
588 28-09-2019 00:55:00 12.8 C 10.64 g/m*3 12.8 C 1.6 km/h
589 28-09-2019 01:00:00 12.8 C 10.64 g/m*3 12.8 C 4.8 km/h
590 28-09-2019 01:05:00 12.8 C 10.64 g/m*3 12.8 C 3.2 km/h
591 28-09-2019 01:10:00 12.9 C 10.71 g/m*3 12.9 C 3.2 km/h
592 28-09-2019 01:15:00 12.8 C 10.64 g/m*3 12.8 C 0 km/h
593 28-09-2019 01:20:00 12.8 C 10.64 g/m*3 12.8 C 0 km/h
594 28-09-2019 01:25:00 12.7 C 10.58 g/m*3 12.7 C 0 km/h
595 28-09-2019 01:30:00 12.8 C 10.64 g/m*3 12.8 C 1.6 km/h
596 28-09-2019 01:35:00 12.8 C 10.64 g/m*3 12.8 C 1.6 km/h
597 28-09-2019 01:40:00 12.9 C 10.82 g/m*3 12.9 C 9.7 km/h
598 28-09-2019 01:45:00 13.1 C 10.84 g/m*3 13.1 C 9.7 km/h
599 28-09-2019 01:50:00 13.2 C 10.91 g/m*3 13.2 C 1.6 km/h
600 28-09-2019 01:55:00 13.3 C 10.98 g/m*3 13.3 C 3.2 km/h
Sensor: Nr:Datum:Temp:Abs-Feuchte:Windchill:Wind:
Aussen-T/F 601 28-09-2019 02:00:00 13.6 C 11.18 g/m*3 13.6 C 4.8 km/h
602 28-09-2019 02:05:00 13.6 C 11.06 g/m*3 13.6 C 4.8 km/h
603 28-09-2019 02:10:00 13.7 C 11.13 g/m*3 13.7 C 11.3 km/h
604 28-09-2019 02:15:00 13.9 C 11.15 g/m*3 13.9 C 11.3 km/h
605 28-09-2019 02:20:00 14.2 C 11.23 g/m*3 14.2 C 16.1 km/h
606 28-09-2019 02:25:00 14.3 C 11.18 g/m*3 14.3 C 6.4 km/h
607 28-09-2019 02:30:00 14.4 C 11.25 g/m*3 14.4 C 9.7 km/h
608 28-09-2019 02:35:00 14.4 C 11.13 g/m*3 14.4 C 3.2 km/h
609 28-09-2019 02:40:00 14.5 C 11.19 g/m*3 14.5 C 8.1 km/h
610 28-09-2019 02:45:00 14.5 C 11.07 g/m*3 14.5 C 9.7 km/h
611 28-09-2019 02:50:00 14.7 C 11.21 g/m*3 14.7 C 11.3 km/h
612 28-09-2019 02:55:00 14.8 C 11.15 g/m*3 14.8 C 12.9 km/h
613 28-09-2019 03:00:00 14.8 C 11.15 g/m*3 14.8 C 8.1 km/h
614 28-09-2019 03:05:00 14.8 C 11.15 g/m*3 14.8 C 9.7 km/h
615 28-09-2019 03:10:00 14.8 C 11.27 g/m*3 14.8 C 8.1 km/h
616 28-09-2019 03:15:00 14.8 C 11.27 g/m*3 14.8 C 4.8 km/h
617 28-09-2019 03:20:00 14.9 C 11.34 g/m*3 14.9 C 4.8 km/h
618 28-09-2019 03:25:00 14.9 C 11.34 g/m*3 14.9 C 6.4 km/h
619 28-09-2019 03:30:00 14.9 C 11.34 g/m*3 14.9 C 9.7 km/h
620 28-09-2019 03:35:00 15 C 11.41 g/m*3 15 C 6.4 km/h
621 28-09-2019 03:40:00 14.9 C 11.47 g/m*3 14.9 C 8.1 km/h
622 28-09-2019 03:45:00 14.8 C 11.4 g/m*3 14.8 C 1.6 km/h
623 28-09-2019 03:50:00 14.7 C 11.46 g/m*3 14.7 C 8.1 km/h
624 28-09-2019 03:55:00 14.6 C 11.39 g/m*3 14.6 C 1.6 km/h
625 28-09-2019 04:00:00 14.4 C 11.25 g/m*3 14.4 C 9.7 km/h
Sensor: Nr:Datum:Temp:Abs-Feuchte:Windchill:Wind:
Aussen-T/F 626 28-09-2019 04:05:00 14.3 C 11.18 g/m*3 14.3 C 4.8 km/h
627 28-09-2019 04:10:00 14.2 C 11.23 g/m*3 14.2 C 1.6 km/h
628 28-09-2019 04:15:00 14.1 C 11.17 g/m*3 14.1 C 0 km/h
629 28-09-2019 04:20:00 14 C 11.1 g/m*3 14 C 3.2 km/h
630 28-09-2019 04:25:00 13.9 C 11.15 g/m*3 13.9 C 3.2 km/h
631 28-09-2019 04:30:00 13.9 C 11.15 g/m*3 13.9 C 4.8 km/h
632 28-09-2019 04:35:00 13.9 C 11.15 g/m*3 13.9 C 6.4 km/h
633 28-09-2019 04:40:00 13.9 C 11.15 g/m*3 13.9 C 9.7 km/h
634 28-09-2019 04:45:00 13.9 C 11.15 g/m*3 13.9 C 8.1 km/h
635 28-09-2019 04:50:00 14 C 11.22 g/m*3 14 C 12.9 km/h
636 28-09-2019 04:55:00 14 C 11.1 g/m*3 14 C 3.2 km/h
637 28-09-2019 05:00:00 13.9 C 11.03 g/m*3 13.9 C 3.2 km/h
638 28-09-2019 05:05:00 13.9 C 11.03 g/m*3 13.9 C 4.8 km/h
639 28-09-2019 05:10:00 13.9 C 11.03 g/m*3 13.9 C 6.4 km/h
640 28-09-2019 05:15:00 13.9 C 11.03 g/m*3 13.9 C 6.4 km/h
641 28-09-2019 05:20:00 13.8 C 10.96 g/m*3 13.8 C 1.6 km/h
642 28-09-2019 05:25:00 13.9 C 11.03 g/m*3 13.9 C 9.7 km/h
643 28-09-2019 05:30:00 13.9 C 11.03 g/m*3 13.9 C 4.8 km/h
644 28-09-2019 05:35:00 13.9 C 11.03 g/m*3 13.9 C 9.7 km/h
645 28-09-2019 05:40:00 13.9 C 11.03 g/m*3 13.9 C 6.4 km/h
646 28-09-2019 05:45:00 14.1 C 11.17 g/m*3 14.1 C 11.3 km/h
647 28-09-2019 05:50:00 14.1 C 11.17 g/m*3 14.1 C 9.7 km/h
648 28-09-2019 05:55:00 14.2 C 11.11 g/m*3 14.2 C 8.1 km/h
649 28-09-2019 06:00:00 14.3 C 11.18 g/m*3 14.3 C 8.1 km/h
650 28-09-2019 06:05:00 14.3 C 11.18 g/m*3 14.3 C 11.3 km/h
Sensor: Nr:Datum:Temp:Abs-Feuchte:Windchill:Wind:
Aussen-T/F 651 28-09-2019 06:10:00 14.4 C 11.25 g/m*3 14.4 C 12.9 km/h
652 28-09-2019 06:15:00 14.5 C 11.32 g/m*3 14.5 C 14.5 km/h
653 28-09-2019 06:20:00 14.5 C 11.32 g/m*3 14.5 C 1.6 km/h
654 28-09-2019 06:25:00 14.4 C 11.13 g/m*3 14.4 C 11.3 km/h
655 28-09-2019 06:30:00 14.4 C 11.13 g/m*3 14.4 C 8.1 km/h
656 28-09-2019 06:35:00 14.4 C 11.13 g/m*3 14.4 C 12.9 km/h
657 28-09-2019 06:40:00 14.4 C 11.13 g/m*3 14.4 C 6.4 km/h
658 28-09-2019 06:45:00 14.5 C 11.32 g/m*3 14.5 C 6.4 km/h
659 28-09-2019 06:50:00 14.4 C 11.25 g/m*3 14.4 C 14.5 km/h
660 28-09-2019 06:55:00 14.3 C 11.18 g/m*3 14.3 C 4.8 km/h
661 28-09-2019 07:00:00 14.3 C 11.18 g/m*3 14.3 C 8.1 km/h
662 28-09-2019 07:05:00 14.2 C 11.23 g/m*3 14.2 C 4.8 km/h
663 28-09-2019 07:10:00 14.1 C 11.17 g/m*3 14.1 C 1.6 km/h
664 28-09-2019 07:15:00 14.1 C 11.17 g/m*3 14.1 C 4.8 km/h
665 28-09-2019 07:20:00 14.1 C 11.29 g/m*3 14.1 C 0 km/h
666 28-09-2019 07:25:00 14.1 C 11.29 g/m*3 14.1 C 0 km/h
667 28-09-2019 07:30:00 14.1 C 11.29 g/m*3 14.1 C 1.6 km/h
668 28-09-2019 07:35:00 14.1 C 11.29 g/m*3 14.1 C 0 km/h
669 28-09-2019 07:40:00 14.1 C 11.41 g/m*3 14.1 C 0 km/h
670 28-09-2019 07:45:00 14 C 11.34 g/m*3 14 C 0 km/h
671 28-09-2019 07:50:00 14 C 11.34 g/m*3 14 C 1.6 km/h
672 28-09-2019 07:55:00 14 C 11.34 g/m*3 14 C 0 km/h
673 28-09-2019 08:00:00 14 C 11.34 g/m*3 14 C 0 km/h
674 28-09-2019 08:05:00 13.9 C 11.27 g/m*3 13.9 C 8.1 km/h
675 28-09-2019 08:10:00 13.9 C 11.27 g/m*3 13.9 C 11.3 km/h
Sensor: Nr:Datum:Temp:Abs-Feuchte:Windchill:Wind:
Aussen-T/F 676 28-09-2019 08:15:00 13.9 C 11.27 g/m*3 13.9 C 4.8 km/h
677 28-09-2019 08:20:00 13.9 C 11.27 g/m*3 13.9 C 8.1 km/h
678 28-09-2019 08:25:00 13.9 C 11.15 g/m*3 13.9 C 14.5 km/h
679 28-09-2019 08:30:00 14 C 11.22 g/m*3 14 C 11.3 km/h
680 28-09-2019 08:35:00 13.9 C 11.15 g/m*3 13.9 C 1.6 km/h
681 28-09-2019 08:40:00 13.9 C 11.15 g/m*3 13.9 C 8.1 km/h
682 28-09-2019 08:45:00 13.8 C 11.08 g/m*3 13.8 C 9.7 km/h
683 28-09-2019 08:50:00 13.8 C 11.08 g/m*3 13.8 C 8.1 km/h
684 28-09-2019 08:55:00 13.8 C 10.96 g/m*3 13.8 C 9.7 km/h
685 28-09-2019 09:00:00 13.9 C 11.03 g/m*3 13.9 C 17.7 km/h
686 28-09-2019 09:05:00 13.9 C 11.03 g/m*3 13.9 C 12.9 km/h
687 28-09-2019 09:10:00 14.1 C 11.04 g/m*3 14.1 C 11.3 km/h
688 28-09-2019 09:15:00 14.2 C 11.11 g/m*3 14.2 C 11.3 km/h
689 28-09-2019 09:20:00 14.3 C 11.06 g/m*3 14.3 C 11.3 km/h
690 28-09-2019 09:25:00 14.4 C 11.25 g/m*3 14.4 C 11.3 km/h
691 28-09-2019 09:30:00 14.4 C 11.13 g/m*3 14.4 C 11.3 km/h
692 28-09-2019 09:35:00 14.6 C 11.26 g/m*3 14.6 C 6.4 km/h
693 28-09-2019 09:40:00 14.6 C 11.14 g/m*3 14.6 C 22.5 km/h
694 28-09-2019 09:45:00 14.6 C 11.01 g/m*3 14.6 C 8.1 km/h
695 28-09-2019 09:50:00 14.6 C 11.14 g/m*3 14.6 C 12.9 km/h
696 28-09-2019 09:55:00 14.7 C 11.08 g/m*3 14.7 C 9.7 km/h
697 28-09-2019 10:00:00 14.7 C 11.08 g/m*3 14.7 C 11.3 km/h
698 28-09-2019 10:05:00 14.8 C 11.15 g/m*3 14.8 C 16.1 km/h
699 28-09-2019 10:10:00 15.1 C 11.22 g/m*3 15.1 C 16.1 km/h
700 28-09-2019 10:15:00 15.2 C 11.16 g/m*3 15.2 C 11.3 km/h
Sensor: Nr:Datum:Temp:Abs-Feuchte:Windchill:Wind:
Aussen-T/F 701 28-09-2019 10:20:00 15.3 C 11.23 g/m*3 15.3 C 11.3 km/h
702 28-09-2019 10:25:00 15.4 C 11.3 g/m*3 15.4 C 14.5 km/h
703 28-09-2019 10:30:00 15.5 C 11.37 g/m*3 15.5 C 11.3 km/h
704 28-09-2019 10:35:00 15.6 C 11.3 g/m*3 15.6 C 6.4 km/h
705 28-09-2019 10:40:00 15.7 C 11.24 g/m*3 15.7 C 14.5 km/h
706 28-09-2019 10:45:00 15.8 C 11.31 g/m*3 15.8 C 9.7 km/h
707 28-09-2019 10:50:00 15.8 C 11.04 g/m*3 15.8 C 14.5 km/h
708 28-09-2019 10:55:00 15.9 C 11.1 g/m*3 15.9 C 16.1 km/h
709 28-09-2019 11:00:00 15.9 C 10.97 g/m*3 15.9 C 19.3 km/h
710 28-09-2019 11:05:00 15.9 C 10.97 g/m*3 15.9 C 20.9 km/h
711 28-09-2019 11:10:00 16 C 11.04 g/m*3 16 C 16.1 km/h
712 28-09-2019 11:15:00 16.2 C 11.17 g/m*3 16.2 C 17.7 km/h
713 28-09-2019 11:20:00 16.3 C 11.24 g/m*3 16.3 C 12.9 km/h
714 28-09-2019 11:25:00 16.3 C 11.1 g/m*3 16.3 C 19.3 km/h
715 28-09-2019 11:30:00 16.4 C 11.31 g/m*3 16.4 C 20.9 km/h
716 28-09-2019 11:35:00 16.5 C 11.09 g/m*3 16.5 C 24.1 km/h
717 28-09-2019 11:40:00 16.6 C 11.16 g/m*3 16.6 C 19.3 km/h
718 28-09-2019 11:45:00 16.5 C 11.09 g/m*3 16.5 C 12.9 km/h
719 28-09-2019 11:50:00 16.5 C 11.37 g/m*3 16.5 C 12.9 km/h
720 28-09-2019 11:55:00 16.6 C 11.3 g/m*3 16.6 C 12.9 km/h
721 28-09-2019 12:00:00 16.6 C 11.16 g/m*3 16.6 C 19.3 km/h
722 28-09-2019 12:05:00 16.7 C 11.37 g/m*3 16.7 C 8.1 km/h
723 28-09-2019 12:10:00 16.8 C 11.44 g/m*3 16.8 C 11.3 km/h
724 28-09-2019 12:15:00 16.8 C 11.29 g/m*3 16.8 C 14.5 km/h
725 28-09-2019 12:20:00 16.9 C 11.22 g/m*3 16.9 C 16.1 km/h
Sensor: Nr:Datum:Temp:Abs-Feuchte:Windchill:Wind:
Aussen-T/F 726 28-09-2019 12:25:00 16.9 C 11.36 g/m*3 16.9 C 8.1 km/h
727 28-09-2019 12:30:00 16.9 C 11.36 g/m*3 16.9 C 11.3 km/h
728 28-09-2019 12:35:00 16.9 C 11.22 g/m*3 16.9 C 17.7 km/h
729 28-09-2019 12:40:00 16.8 C 11.15 g/m*3 16.8 C 14.5 km/h
730 28-09-2019 12:45:00 16.9 C 11.22 g/m*3 16.9 C 8.1 km/h
731 28-09-2019 12:50:00 16.9 C 11.22 g/m*3 16.9 C 11.3 km/h
732 28-09-2019 12:55:00 17.1 C 11.21 g/m*3 17.1 C 17.7 km/h
733 28-09-2019 13:00:00 17.2 C 11.42 g/m*3 17.2 C 11.3 km/h
734 28-09-2019 13:05:00 17.2 C 11.28 g/m*3 17.2 C 19.3 km/h
735 28-09-2019 13:10:00 17.2 C 11.28 g/m*3 17.2 C 20.9 km/h
736 28-09-2019 13:15:00 17.2 C 11.28 g/m*3 17.2 C 11.3 km/h
737 28-09-2019 13:20:00 17.2 C 11.28 g/m*3 17.2 C 19.3 km/h
738 28-09-2019 13:25:00 17.3 C 11.2 g/m*3 17.3 C 16.1 km/h
739 28-09-2019 13:30:00 17.2 C 11.28 g/m*3 17.2 C 22.5 km/h
740 28-09-2019 13:35:00 17.1 C 11.21 g/m*3 17.1 C 24.1 km/h
741 28-09-2019 13:40:00 17.2 C 11.28 g/m*3 17.2 C 19.3 km/h
742 28-09-2019 13:45:00 17.2 C 11.28 g/m*3 17.2 C 14.5 km/h
743 28-09-2019 13:50:00 17.3 C 11.34 g/m*3 17.3 C 17.7 km/h
744 28-09-2019 13:55:00 17.3 C 11.49 g/m*3 17.3 C 11.3 km/h
745 28-09-2019 14:00:00 17.4 C 11.56 g/m*3 17.4 C 14.5 km/h
746 28-09-2019 14:05:00 17.4 C 11.41 g/m*3 17.4 C 12.9 km/h
747 28-09-2019 14:10:00 17.4 C 11.41 g/m*3 17.4 C 14.5 km/h
748 28-09-2019 14:15:00 17.4 C 11.56 g/m*3 17.4 C 24.1 km/h
749 28-09-2019 14:20:00 17.5 C 11.48 g/m*3 17.5 C 19.3 km/h
750 28-09-2019 14:25:00 17.4 C 11.12 g/m*3 17.4 C 24.1 km/h
Sensor: Nr:Datum:Temp:Abs-Feuchte:Windchill:Wind:
Aussen-T/F 751 28-09-2019 14:30:00 17.5 C 11.48 g/m*3 17.5 C 16.1 km/h
752 28-09-2019 14:35:00 17.6 C 11.4 g/m*3 17.6 C 14.5 km/h
753 28-09-2019 14:40:00 17.7 C 11.47 g/m*3 17.7 C 16.1 km/h
754 28-09-2019 14:45:00 17.7 C 11.32 g/m*3 17.7 C 20.9 km/h
755 28-09-2019 14:50:00 17.5 C 11.33 g/m*3 17.5 C 17.7 km/h
756 28-09-2019 14:55:00 17.4 C 11.26 g/m*3 17.4 C 12.9 km/h
757 28-09-2019 15:00:00 17.5 C 11.48 g/m*3 17.5 C 12.9 km/h
758 28-09-2019 15:05:00 17.5 C 11.33 g/m*3 17.5 C 19.3 km/h
759 28-09-2019 15:10:00 17.4 C 11.26 g/m*3 17.4 C 16.1 km/h
760 28-09-2019 15:15:00 17.4 C 11.41 g/m*3 17.4 C 11.3 km/h
761 28-09-2019 15:20:00 17.3 C 11.49 g/m*3 17.3 C 17.7 km/h
762 28-09-2019 15:25:00 17.3 C 11.34 g/m*3 17.3 C 16.1 km/h
763 28-09-2019 15:30:00 17.1 C 11.21 g/m*3 17.1 C 11.3 km/h
764 28-09-2019 15:35:00 17 C 11.29 g/m*3 17 C 14.5 km/h
765 28-09-2019 15:40:00 17 C 11.29 g/m*3 17 C 19.3 km/h
766 28-09-2019 15:45:00 16.9 C 11.22 g/m*3 16.9 C 19.3 km/h
767 28-09-2019 15:50:00 16.9 C 11.22 g/m*3 16.9 C 11.3 km/h
768 28-09-2019 15:55:00 16.7 C 11.08 g/m*3 16.7 C 16.1 km/h
769 28-09-2019 16:00:00 16.7 C 11.37 g/m*3 16.7 C 11.3 km/h
770 28-09-2019 16:05:00 16.7 C 11.37 g/m*3 16.7 C 11.3 km/h
771 28-09-2019 16:10:00 16.8 C 11.44 g/m*3 16.8 C 14.5 km/h
772 28-09-2019 16:15:00 17 C 11.43 g/m*3 17 C 9.7 km/h
773 28-09-2019 16:20:00 17.4 C 11.56 g/m*3 17.4 C 12.9 km/h
774 28-09-2019 16:25:00 17.6 C 11.55 g/m*3 17.6 C 16.1 km/h
775 28-09-2019 16:30:00 17.7 C 11.47 g/m*3 17.7 C 17.7 km/h
Sensor: Nr:Datum:Temp:Abs-Feuchte:Windchill:Wind:
Aussen-T/F 776 28-09-2019 16:35:00 17.7 C 11.62 g/m*3 17.7 C 16.1 km/h
777 28-09-2019 16:40:00 17.7 C 11.62 g/m*3 17.7 C 22.5 km/h
778 28-09-2019 16:45:00 17.7 C 11.47 g/m*3 17.7 C 16.1 km/h
779 28-09-2019 16:50:00 17.7 C 11.47 g/m*3 17.7 C 9.7 km/h
780 28-09-2019 16:55:00 17.6 C 11.4 g/m*3 17.6 C 12.9 km/h
781 28-09-2019 17:00:00 17.6 C 11.4 g/m*3 17.6 C 14.5 km/h
782 28-09-2019 17:05:00 17.6 C 11.4 g/m*3 17.6 C 16.1 km/h
783 28-09-2019 17:10:00 17.4 C 11.26 g/m*3 17.4 C 20.9 km/h
784 28-09-2019 17:15:00 17.1 C 11.21 g/m*3 17.1 C 16.1 km/h
785 28-09-2019 17:20:00 17.1 C 11.35 g/m*3 17.1 C 14.5 km/h
786 28-09-2019 17:25:00 17.3 C 11.49 g/m*3 17.3 C 22.5 km/h
787 28-09-2019 17:30:00 17.8 C 11.54 g/m*3 17.8 C 9.7 km/h
788 28-09-2019 17:35:00 18.1 C 11.43 g/m*3 18.1 C 17.7 km/h
789 28-09-2019 17:40:00 18.2 C 11.66 g/m*3 18.2 C 8.1 km/h
790 28-09-2019 17:45:00 18.2 C 11.5 g/m*3 18.2 C 12.9 km/h
791 28-09-2019 17:50:00 18.2 C 11.5 g/m*3 18.2 C 19.3 km/h
792 28-09-2019 17:55:00 18 C 11.37 g/m*3 18 C 19.3 km/h
793 28-09-2019 18:00:00 17.8 C 11.23 g/m*3 17.8 C 16.1 km/h
794 28-09-2019 18:05:00 17.8 C 11.38 g/m*3 17.8 C 11.3 km/h
795 28-09-2019 18:10:00 17.8 C 11.38 g/m*3 17.8 C 11.3 km/h
796 28-09-2019 18:15:00 17.7 C 11.47 g/m*3 17.7 C 9.7 km/h
797 28-09-2019 18:20:00 17.5 C 11.33 g/m*3 17.5 C 9.7 km/h
798 28-09-2019 18:25:00 17.4 C 11.26 g/m*3 17.4 C 14.5 km/h
799 28-09-2019 18:30:00 17.3 C 11.34 g/m*3 17.3 C 9.7 km/h
800 28-09-2019 18:35:00 17 C 11.14 g/m*3 17 C 9.7 km/h
Sensor: Nr:Datum:Temp:Abs-Feuchte:Windchill:Wind:
Aussen-T/F 801 28-09-2019 18:40:00 16.7 C 11.08 g/m*3 16.7 C 9.7 km/h
802 28-09-2019 18:45:00 16.4 C 10.89 g/m*3 16.4 C 6.4 km/h
803 28-09-2019 18:50:00 16.2 C 10.76 g/m*3 16.2 C 12.9 km/h
804 28-09-2019 18:55:00 16.1 C 10.83 g/m*3 16.1 C 11.3 km/h
805 28-09-2019 19:00:00 16.1 C 10.83 g/m*3 16.1 C 6.4 km/h
806 28-09-2019 19:05:00 15.9 C 10.7 g/m*3 15.9 C 11.3 km/h
807 28-09-2019 19:10:00 15.9 C 10.83 g/m*3 15.9 C 6.4 km/h
808 28-09-2019 19:15:00 15.8 C 10.77 g/m*3 15.8 C 9.7 km/h
809 28-09-2019 19:20:00 15.7 C 10.84 g/m*3 15.7 C 4.8 km/h
810 28-09-2019 19:25:00 15.6 C 10.77 g/m*3 15.6 C 11.3 km/h
811 28-09-2019 19:30:00 15.6 C 10.77 g/m*3 15.6 C 14.5 km/h
812 28-09-2019 19:35:00 15.6 C 10.91 g/m*3 15.6 C 8.1 km/h
813 28-09-2019 19:40:00 15.6 C 10.77 g/m*3 15.6 C 11.3 km/h
814 28-09-2019 19:45:00 15.6 C 10.77 g/m*3 15.6 C 6.4 km/h
815 28-09-2019 19:50:00 15.5 C 10.71 g/m*3 15.5 C 11.3 km/h
816 28-09-2019 19:55:00 15.5 C 10.71 g/m*3 15.5 C 6.4 km/h
817 28-09-2019 20:00:00 15.6 C 10.77 g/m*3 15.6 C 11.3 km/h
818 28-09-2019 20:05:00 15.6 C 10.77 g/m*3 15.6 C 6.4 km/h
819 28-09-2019 20:10:00 15.6 C 10.77 g/m*3 15.6 C 6.4 km/h
820 28-09-2019 20:15:00 15.5 C 10.71 g/m*3 15.5 C 3.2 km/h
821 28-09-2019 20:20:00 15.3 C 10.71 g/m*3 15.3 C 6.4 km/h
822 28-09-2019 20:25:00 15.2 C 10.64 g/m*3 15.2 C 1.6 km/h
823 28-09-2019 20:30:00 15.1 C 10.71 g/m*3 15.1 C 6.4 km/h
824 28-09-2019 20:35:00 15 C 10.64 g/m*3 15 C 1.6 km/h
825 28-09-2019 20:40:00 14.9 C 10.58 g/m*3 14.9 C 8.1 km/h
Sensor: Nr:Datum:Temp:Abs-Feuchte:Windchill:Wind:
Aussen-T/F 826 28-09-2019 20:45:00 15 C 10.77 g/m*3 15 C 1.6 km/h
827 28-09-2019 20:50:00 15 C 10.64 g/m*3 15 C 6.4 km/h
828 28-09-2019 20:55:00 15.1 C 10.71 g/m*3 15.1 C 11.3 km/h
829 28-09-2019 21:00:00 15.1 C 10.71 g/m*3 15.1 C 3.2 km/h
830 28-09-2019 21:05:00 15 C 10.64 g/m*3 15 C 1.6 km/h
831 28-09-2019 21:10:00 14.9 C 10.58 g/m*3 14.9 C 1.6 km/h
832 28-09-2019 21:15:00 14.8 C 10.51 g/m*3 14.8 C 3.2 km/h
833 28-09-2019 21:20:00 14.8 C 10.64 g/m*3 14.8 C 9.7 km/h
834 28-09-2019 21:25:00 14.8 C 10.51 g/m*3 14.8 C 12.9 km/h
835 28-09-2019 21:30:00 14.9 C 10.58 g/m*3 14.9 C 9.7 km/h
836 28-09-2019 21:35:00 15.1 C 10.58 g/m*3 15.1 C 14.5 km/h
837 28-09-2019 21:40:00 15.1 C 10.58 g/m*3 15.1 C 6.4 km/h
838 28-09-2019 21:45:00 15 C 10.51 g/m*3 15 C 8.1 km/h
839 28-09-2019 21:50:00 15.1 C 10.58 g/m*3 15.1 C 14.5 km/h
840 28-09-2019 21:55:00 15.1 C 10.58 g/m*3 15.1 C 8.1 km/h
841 28-09-2019 22:00:00 15.2 C 10.51 g/m*3 15.2 C 14.5 km/h
842 28-09-2019 22:05:00 15.3 C 10.58 g/m*3 15.3 C 11.3 km/h
843 28-09-2019 22:10:00 15.3 C 10.58 g/m*3 15.3 C 12.9 km/h
844 28-09-2019 22:15:00 15.3 C 10.58 g/m*3 15.3 C 11.3 km/h
845 28-09-2019 22:20:00 15.4 C 10.64 g/m*3 15.4 C 22.5 km/h
846 28-09-2019 22:25:00 15.3 C 10.58 g/m*3 15.3 C 12.9 km/h
847 28-09-2019 22:30:00 15.3 C 10.58 g/m*3 15.3 C 9.7 km/h
848 28-09-2019 22:35:00 15.2 C 10.51 g/m*3 15.2 C 8.1 km/h
849 28-09-2019 22:40:00 15.1 C 10.45 g/m*3 15.1 C 3.2 km/h
850 28-09-2019 22:45:00 14.9 C 10.45 g/m*3 14.9 C 3.2 km/h
Sensor: Nr:Datum:Temp:Abs-Feuchte:Windchill:Wind:
Aussen-T/F 851 28-09-2019 22:50:00 14.7 C 10.32 g/m*3 14.7 C 3.2 km/h
852 28-09-2019 22:55:00 14.6 C 10.39 g/m*3 14.6 C 1.6 km/h
853 28-09-2019 23:00:00 14.4 C 10.38 g/m*3 14.4 C 0 km/h
854 28-09-2019 23:05:00 14.3 C 10.32 g/m*3 14.3 C 3.2 km/h
855 28-09-2019 23:10:00 14.1 C 10.32 g/m*3 14.1 C 1.6 km/h
856 28-09-2019 23:15:00 14 C 10.25 g/m*3 14 C 4.8 km/h
857 28-09-2019 23:20:00 13.9 C 10.31 g/m*3 13.9 C 1.6 km/h
858 28-09-2019 23:25:00 13.9 C 10.31 g/m*3 13.9 C 4.8 km/h
859 28-09-2019 23:30:00 14 C 10.37 g/m*3 14 C 9.7 km/h
860 28-09-2019 23:35:00 14.2 C 10.38 g/m*3 14.2 C 14.5 km/h
861 28-09-2019 23:40:00 14.4 C 10.38 g/m*3 14.4 C 3.2 km/h
862 28-09-2019 23:45:00 14.3 C 10.32 g/m*3 14.3 C 4.8 km/h
863 28-09-2019 23:50:00 14.2 C 10.26 g/m*3 14.2 C 6.4 km/h
864 28-09-2019 23:55:00 14.1 C 10.32 g/m*3 14.1 C 0 km/h

Legende:
   Min
   Max


Maximal/Minimal-Werte vom 26.09.2019 - 28.09.2019

Sensor Min Max Avg
Temp
(Aussen-T/F)
12.7 °C
28-09-2019  01:25:00
19.2 °C
27-09-2019  17:40:00
15.92 °C
Abs-Feuchte
(Aussen-T/F)
10.25 g/m*3
28-09-2019  23:15:00
14.67 g/m*3
26-09-2019  16:15:00
11.94 g/m*3
Windchill
(Aussen-T/F)
12.7 C
28-09-2019  01:25:00
19.2 C
27-09-2019  17:40:00
15.91 C

Die Daten stammen von einer Davis Vantage Pro 2 Wetter-Station und werden unter Linux mit der Software wview2wettercgi und aufbereitet. Alle Angaben erfolgen ohne Gewähr für ihre Vollständigkeit oder Richtigkeit.
Kontakt: Rainer Krienke krienke@uni-koblenz.de . Meine Webseiten an der Uni Koblenz oder privat.
Version: $Revision: 0.78 $